星链-4490 (STARLINK-4490 )

导读

STARLINK-4490是美国SpaceX公司于2022年8月10日发射的星链(Starlink)低轨宽带通信卫星,隶属于星链全球互联网星座。该卫星运行于近地轨道,搭载Ku/Ka波段通信载荷与霍尔推进系统,支持高速卫星互联网接入,具备自主避撞能力,寿命末期会主动离轨再入大气层销毁,服务全球偏远地区及移动场景的宽带连接,是星链大规模组网的组成部分。

Basic Information
目录编号:
53409
目录名称:
STARLINK-4490
国际标识:
2022-097X
轨道中心:
EARTH
卫星名称:
星链-4490
卫星全名:
星链-4490 (STARLINK-4490 )
卫星状态:
在轨 (已飞行1486 天)
发射日期:
2022-08-10 UTC
国别 :
美国 (US)
星等 :
--
Orbit Information
数据来源 国际轨道数据
星历时间: 2026-09-04T03:31:30+0800
15小时前
查看轨道信息
半长轴: 6840.807km
偏心率: 0.0000961
轨道倾角: 53.162°
近地点辐角 80.930°
升交点赤经 12.066°
平近点角 279.181°
近地点: 462.012km
远地点: 463.328km
周期: 93.847分钟
每日圈数: 15.344112
Detailed Information
固有亮度:
5
最大亮度:
2.5
卫星平台:
Starlink v1.5
覆盖范围:
全球
运营商:
太空探索技术公司
运营商所在国:
美国
制造商(研发单位):
太空探索技术公司
制造商所在国:
美国
使用方式:
暂无
Satellite Introduction
星链(Starlink)计划是由太空探索技术公司(SpaceX)提出的一个巨型低轨卫星互联网星座项目,计划在2019年至2024年间在太空搭建由约1.2万颗卫星组成的“星链”网络,其中1584颗将部署在地球上空550千米处的近地轨道,并从2020年开始工作。该卫星仍在工作。
2D Orbit Map
3D Orbit Map
Orbit Altitude Analysis Chart
Orbit Inclination Analysis Chart
Orbit Comprehensive Analysis Chart
View Comprehensive Chart
Conjunction Data List
Event ID Objects TCA Miss Dist (km) Collision Risk Probability Collision Risk Index (CRI) Action
CDM_260903-080703-279105-340924
SEEDS (32791)
2026-09-03T
08:07:04+0000
1.430 km
极远距离
7.35416E-6 低风险 0.52
CDM_260906-141305-340906-489121
OBJECT R (64891)
2026-09-06T
14:13:48+0000
2.430 km
极远距离
1.788141E-6 低风险 0.4
CDM_260906-051105-340905-363721
2026-09-06T
05:11:40+0000
2.692 km
极远距离
1.304608E-6 低风险 0.37